Tracking 29033 objects as of 22-Jun-2024
HD Live streaming from Space Station
objects crossing your sky now

NSS 513 (INTELSAT 513)

Track NSS 513 (INTELSAT 513) now!
NSS 513 (INTELSAT 513) is classified as:


NORAD ID: 19121
Int'l Code: 1988-040A
Perigee: 36,205.6 km
Apogee: 36,349.0 km
Inclination: 15.0 °
Period: 1,460.9 minutes
Semi major axis: 42648 km
RCS: 9.2727 m2 (large)
Launch date: May 17, 1988
Source: Netherlands (NETH)
Launch site: FRENCH GUIANA (FRGUI)
Your satellite tracking list
Your tracking list is empty




NASA's NSSDC Master Catalog

Two Line Element Set (TLE):
1 19121U 88040A   24173.56865255  .00000014  00000-0  00000-0 0  9998
2 19121  14.9512 354.1039 0016817 103.2822 259.9866  0.98571368107396
Source of the keplerian elements: AFSPC